Location: Melbourne
(37.8170°S, 144.9670°E)
Time: 22:38:30
(UTC+10:00)

ISS - All Passes

Search period start: 19 April 2015 00:00
Search period end: 29 April 2015 00:00
Orbit: 396 x 403 km, 51.6° (Epoch: 19 April)

Date Brightness Start Highest point End Pass type
(mag) Time Alt. Az. Time Alt. Az. Time Alt. Az.
19 Apr - 02:35:22 10° NW 02:38:37 73° SW 02:41:55 10° SE night (unlit)
19 Apr - 04:13:42 10° SW 04:15:30 14° SSW 04:17:17 10° SSE visible
19 Apr - 07:29:05 10° S 07:30:41 13° SSE 07:32:21 10° SE daylight
19 Apr - 09:04:21 10° SW 09:07:38 63° SE 09:10:53 10° ENE daylight
19 Apr - 10:42:26 10° WNW 10:43:39 11° NW 10:44:44 10° NNW daylight
20 Apr - 01:41:36 10° NNW 01:44:46 50° NE 01:47:58 10° ESE night (unlit)
20 Apr - 03:18:48 10° WSW 03:21:21 20° SSW 03:23:51 10° SSE night (unlit)
20 Apr - 08:10:37 10° SSW 08:13:38 32° SSE 08:16:39 10° E daylight
20 Apr - 09:47:12 10° WSW 09:49:55 24° NW 09:52:35 10° N daylight
21 Apr - 00:48:18 10° N 00:50:56 23° NE 00:53:38 10° ESE night (unlit)
21 Apr - 02:24:13 10° W 02:27:12 32° SSW 02:30:14 10° SSE night (unlit)
21 Apr - 07:16:59 10° SSW 07:19:29 20° SSE 07:22:02 10° ESE daylight
21 Apr - 08:52:52 10° WSW 08:56:04 51° NW 08:59:15 10° NNE daylight
21 Apr - 23:56:08 10° NE 23:57:07 11° NE 23:58:14 10° ENE night (unlit)
22 Apr - 01:29:53 10° WNW 01:33:08 64° SW 01:36:24 10° SE night (unlit)
22 Apr - 03:08:24 10° SW 03:10:03 13° SSW 03:11:39 10° S night (unlit)
22 Apr - 06:23:27 10° SSW 06:25:12 14° SSE 06:27:01 10° SE visible
22 Apr - 07:58:47 10° SW 08:02:05 72° SE 08:05:21 10° NE daylight
23 Apr - 00:35:53 10° NW 00:39:05 58° NE 00:42:20 10° ESE night (unlit)
23 Apr - 02:13:17 10° WSW 02:15:43 19° SSW 02:18:07 10° SSE night (unlit)
23 Apr - 05:30:27 10° S 05:30:48 10° SSE 05:31:11 10° SSE visible
23 Apr - 07:04:52 10° SW 07:07:57 35° SSE 07:11:01 10° ENE daylight
23 Apr - 08:41:36 10° W 08:44:10 21° NW 08:46:41 10° N daylight
23 Apr - 23:42:20 10° N 23:45:05 26° NE 23:47:55 10° ESE night (unlit)
24 Apr - 01:18:27 10° W 01:21:24 30° SSW 01:24:21 10° SSE night (unlit)
24 Apr - 06:11:03 10° SSW 06:13:39 21° SSE 06:16:17 10° E visible
24 Apr - 07:47:00 10° WSW 07:50:11 45° NW 07:53:18 10° NNE daylight
24 Apr - 22:49:39 10° NNE 22:51:06 13° NE 22:52:40 10° E night (unlit)
25 Apr - 00:23:55 10° WNW 00:27:08 57° SW 00:30:23 10° SE night (unlit)
25 Apr - 02:02:35 10° SW 02:04:05 12° SSW 02:05:33 10° S night (unlit)
25 Apr - 05:17:20 10° SSW 05:19:13 14° SSE 05:21:09 10° ESE visible
25 Apr - 06:52:44 10° SW 06:56:02 81° SE 06:59:19 10° NE daylight
25 Apr - 23:29:41 10° NW 23:32:55 66° NE 23:36:11 10° SE night (unlit)
26 Apr - 01:07:14 10° WSW 01:09:34 18° SSW 01:11:53 10° SSE night (unlit)
26 Apr - 04:23:56 10° S 04:24:39 11° SSE 04:25:25 10° SSE visible
26 Apr - 05:58:38 10° SW 06:01:45 39° SE 06:04:51 10° ENE visible
26 Apr - 07:35:30 10° W 07:37:56 19° NW 07:40:17 10° N daylight
26 Apr - 22:35:52 10° NNW 22:38:44 29° NE 22:41:39 10° ESE night (unlit)
27 Apr - 00:12:11 10° W 00:15:04 28° SSW 00:17:58 10° SSE night (unlit)
27 Apr - 05:04:37 10° SSW 05:07:18 23° SSE 05:10:01 10° E visible
27 Apr - 06:40:40 10° WSW 06:43:46 40° NW 06:46:50 10° NNE daylight
27 Apr - 21:42:50 10° NNE 21:44:35 14° NE 21:46:25 10° E night (unlit)
27 Apr - 23:17:26 10° WNW 23:20:38 51° SW 23:23:51 10° SE night (unlit)
28 Apr - 00:56:16 10° SW 00:57:37 12° SSW 00:58:55 10° S night (unlit)
28 Apr - 04:10:43 10° SSW 04:12:44 15° SSE 04:14:45 10° ESE visible
28 Apr - 05:46:11 10° SW 05:49:29 89° SSE 05:52:45 10° NE visible
28 Apr - 22:23:00 10° NW 22:26:14 73° NE 22:29:32 10° SE night (unlit)
